Main page
Satellite images Climate Cyclones Lightning AirportsFAQ Languages Contact Newsletter About
Weather : Europe Africa North America South America Asia Australia-Oceania Others

vientiane-la, Loei, Loei Airport

48353

latitude: , longitude: Thailand, elevation: 17-27N m


METAR: VTUL 240500Z 27003KT 180V340 8000 BKN020 BKN070 30/25 Q1010 NOSIG